OBJECT D, 49318

Orbit data source: Space-Track

You're viewing an Uncataloged Satellite

Recently launched and/or uncataloged satellites may have evolving metadata. Metadata may include but not limited to: Owner, Maufacturer, Bus, Motor, and Mission.

OBJECT D, 49318 is a satellite owned by SISE (CN) in SSO that was launched on Thu, 14 Oct 2021 UTC via a CHANG ZHENG 2D launch vehicle from the Taiyaun Space Center, China (TSC). Unknown objects in Earth's orbit typically refer to objects detected orbiting the Earth but have not yet been identified or cataloged. These objects could be anything from previously untracked satellites, spent rocket stages, debris from satellite collisions, or even natural meteoroids temporarily captured by Earth's gravity.

Loading next visibility...
Identifier
49318, 2021-091D
Orbit
SSO
Country
Flag of CNCN / PRC
Related business
Manufacturer
Lizheng Sat
Mission
Operational Commercial Communications
Bus & Motor
JTSY, Unknown motor
Mass
103 kg wet, 103 kg dry
Launch date (UTC)
2021-10-14 (5 years ago)
Launch vehicle
CHANG ZHENG 2D
Launch site
Taiyaun Space Center, China (TSC)
Object type
Unknown
Shape & HBR
Box, 0.5 m
Radar Cross Section
0.625 m², Medium (>0.1 m² and < 1m²)

Expand to show TLE details & history
Last TLE update: 21 hours ago

TLE from 21 hours ago
0 OBJECT D
1 49318U 21091D   26172.55671056 -.00000169  00000-0 -92988-4 0  9999
2 49318  97.4497 204.5208 0011060 323.7229  36.3189 14.00144727248693
Epoch: 2026-06-21T13:21Z
TLE epoch observation values (Epoch: 2026-06-21T13:21:39.792Z)
Latitude
-0.00004°
Longitude
94.34973°
Altitude
889.74 km
Speed
7.411 km/s
True Right ascension
13h 38m 04s
True Declination
0° 00' 00"
Sunlit
Object was in daylight at epoch
Visualization orbit readout
Latitude
Unknown
Longitude
Unknown
Altitude
Unknown
Speed
Unknown
Apparent Right ascension
Unknown
Apparent Declination
Unknown
Sunlit
N/A
Visualization observer readout
Local Sidereal Time
21:40:59
Azimuth
Unknown
Elevation
Unknown
Doppler factor
Unknown
Orbital elements
Apogee altitude
898.463 km
Perigee altitude
882.385 km
Semi-major axis
7,268.561 km
Eccentricity
0.00111
Inclination
97.4497°
RAAN
204.5208°
Arg. of periapsis
323.7229°
True anomaly
36.39405°
Mean anomaly
36.3189°
Eccentric anomaly
36.35647°
Mean motion
3.50244 °/min
Orbital period
102.79 mins
BSTAR
-0.000092988
Loading maneuver chart data...
Computing Atmospheric mass density...
Loading historical data...
Loading historical data...
Loading historical data...
Loading historical data...
Loading historical data...
Loading historical data...
Loading historical data...

Documentation

Showing up to 5 results
|